MOLNIYA 3-8

Last updated on Nov. 14, 2019, 4:22 a.m. UTC

1 10455U 77105A   19317.13884505  .00001563  00000-0  12841-1 0  9992
2 10455  62.2172 141.5444 7194481 274.8475  13.8808  2.00662617308055
UTC
Height (km)
Latitude
Longitude
Inclination
Orbital Period
UTC large
Height (km)
Speed (km/s)
/
Latitude / Longitude
Inclination (degrees)
Orbital Period (minutes)
Azimuth
Elevation
Range (km)
Doppler Factor
iOS Compass Heading
iOS Angle

Next 30 passes for location: Hong Kong

Rise time Rise Azimuth (degrees) Set time Set Azimuth (degrees) Duration Max altitude (degrees)

No matching passes for this satellites